Flag for Germany Weather past 2 weeks in Kulmbach, Bavaria, Germany

Now
31 °F

Fog.


Feels Like: 27 °F
Forecast: 30 / 36 °F
Wind: 3 mph from West

Location: Hof

Current Time: Jan 28, 2015 at 6:10:59 AM

Latest Report: Jan 28, 2015 at 6:00 AM


Visibility: 4 mi

Pressure: 30.09 "Hg

Humidity: 98%

Dew point: 30 °F

Location of KulmbachLocation

Historic Weather in Kulmbach — Graph

°F

Kulmbach temperature yesterday

Maximum temperature yesterday: 33 °F (at 3:00 PM)
Minimum temperature yesterday: 30 °F (at 12:00 AM)
Average temperature yesterday: 31 °F

Past Weeks' High & Low Weather Summary

 TemperatureHumidityPressure
High49 °F (Jan 13, 7:00 PM)100% (Jan 17, 2:00 PM)30.37 "Hg (Jan 17, 2:00 PM)
Low26 °F (Jan 23, 11:00 AM)44% (Jan 13, 6:00 PM)29.74 "Hg (Jan 16, 6:00 PM)
Average32 °F90%30.02 "Hg
* Reported Jan 13 3:00 AM — Jan 28 3:00 AM, Kulmbach, Weather by CustomWeather, © 2014

Note: Actual official high and low records may vary slightly from our data, if they occured in-between our weather recording intervals... More about our weather records

Advertising

Kulmbach weather history for previous 24 hours

 ConditionsComfort  
Time TempWeatherWind HumidityBarometerVisibility
3:00 AM
Jan 28
30 °FSnow flurries. Low clouds.2 mph96%30.14 "Hg4 mi
2:00 AM30 °FDrizzle. Low clouds.3 mph95%30.15 "Hg7 mi
1:00 AM31 °FOvercast.3 mph92%30.14 "Hg11 mi
12:00 AM30 °FOvercast.3 mph91%30.14 "Hg14 mi
11:00 PM
Jan 27
30 °FOvercast.2 mph92%30.14 "Hg14 mi
9:00 PM31 °FOvercast.3 mph92%30.15 "Hg12 mi
8:00 PM31 °FOvercast.3 mph91%30.13 "Hg12 mi
7:00 PM31 °FOvercast.3 mph90%30.12 "Hg16 mi
6:00 PM31 °FOvercast.5 mph84%30.11 "Hg16 mi
5:00 PM32 °FOvercast.3 mph87%30.10 "Hg16 mi
3:00 PM33 °FPartly sunny.5 mph79%30.08 "Hg19 mi
2:00 PM33 °FSnow flurries. Low clouds.3 mph85%30.08 "Hg19 mi
1:00 PM32 °FLow clouds.5 mph84%30.08 "Hg19 mi
12:00 PM31 °FSnow flurries. Low clouds.5 mph91%30.09 "Hg7 mi
11:00 AM31 °FLow clouds.3 mph88%30.09 "Hg19 mi
9:00 AM31 °FLight snow. Low clouds.5 mph92%30.06 "Hg6 mi
8:00 AM31 °FLight snow. Low clouds.5 mph94%30.05 "Hg6 mi
7:00 AM31 °FLight snow. Low clouds.5 mph92%30.04 "Hg5 mi
6:00 AM31 °FSnow flurries. Low clouds.6 mph97%30.03 "Hg7 mi
Weather by CustomWeather, © 2014

See weather overviewHow to use our weather pages